Location: Poughquag
(41.6090°N, 73.6820°W)
Time: 12:45:54
(UTC-04:00)

Vanguard 1 - Pass Details

Date: 29 May 2020
Orbit: 650 x 3833 km, 34.2° (Epoch: 07 July)

Event Time Altitude Azimuth Distance (km) Brightness Sun altitude
Rises 09:47:44 0° 266° (W) 7,237 14.1 46.7°
Reaches altitude 10° 09:52:10 10° 264° (W) 6,479 13.9 47.5°
Maximum altitude 10:14:50 70° 188° (S) 3,944 14.1 51.5°
Drops below altitude 10° 10:35:00 10° 110° (ESE) 5,869 14.8 55.1°
Sets 10:38:46 0° 108° (ESE) 6,560 14.8 55.7°
